contact:dominique.lefevre@mio.osupytheas.fr, maurice.libes@osupytheas.fr, didier.mallarino@osupytheas.fr
Project:EMSO http://www.emso-fr.org/EMSO-France
Depth: 2436.0 m
Title:EMSO Ligure Ouest : Data MII capteur CSTAR
DateTime,Latitude,Longitude,Instrument_Serial,Reference_Counts,Signal_Counts,Corrected_Signal_raw_counts,Calculated_Beam_c_inverse_meters,Internal_thermistor_counts
DateTime,Latitude,Longitude,Instrument_Serial,Reference_Counts,Signal_Counts,Corrected_Signal_raw_counts,Calculated_Beam_c_inverse_meters,Internal_thermistor_counts
2019-10-17T00:01:43,42.805,6.029,CST-1368DR,7585,10624,15338,0.072,551
2019-10-17T00:04:44,42.805,6.029,CST-1368DR,7585,10623,15337,0.072,551
2019-10-17T00:07:46,42.805,6.029,CST-1368DR,7585,10625,15339,0.072,551
2019-10-17T00:10:48,42.805,6.029,CST-1368DR,7585,10625,15339,0.072,551
2019-10-17T00:13:49,42.805,6.029,CST-1368DR,7585,10624,15338,0.072,550
2019-10-17T00:16:51,42.805,6.029,CST-1368DR,7585,10620,15332,0.073,551
2019-10-17T00:19:52,42.805,6.029,CST-1368DR,7585,10625,15339,0.072,551
2019-10-17T00:22:54,42.805,6.029,CST-1368DR,7585,10622,15335,0.073,551
2019-10-17T00:25:56,42.805,6.029,CST-1368DR,7585,10624,15338,0.072,551
2019-10-17T00:28:57,42.805,6.029,CST-1368DR,7584,10622,15337,0.072,551
2019-10-17T00:31:59,42.805,6.029,CST-1368DR,7584,10624,15340,0.071,550
2019-10-17T00:35:01,42.805,6.029,CST-1368DR,7584,10624,15340,0.071,551
2019-10-17T00:38:03,42.805,6.029,CST-1368DR,7584,10625,15341,0.071,551
2019-10-17T00:41:04,42.805,6.029,CST-1368DR,7585,10625,15338,0.072,551
2019-10-17T00:44:06,42.805,6.029,CST-1368DR,7585,10625,15339,0.072,551
2019-10-17T00:47:08,42.805,6.029,CST-1368DR,7585,10625,15339,0.072,551
2019-10-17T00:50:09,42.805,6.029,CST-1368DR,7585,10624,15337,0.072,551
2019-10-17T00:53:11,42.805,6.029,CST-1368DR,7585,10625,15339,0.072,551
2019-10-17T00:56:13,42.805,6.029,CST-1368DR,7584,10622,15337,0.072,550
2019-10-17T00:59:14,42.805,6.029,CST-1368DR,7584,10624,15340,0.071,551
2019-10-17T01:02:16,42.805,6.029,CST-1368DR,7584,10623,15338,0.072,550
2019-10-17T01:05:17,42.805,6.029,CST-1368DR,7584,10622,15336,0.072,551
2019-10-17T01:08:19,42.805,6.029,CST-1368DR,7584,10623,15338,0.072,550
2019-10-17T01:11:21,42.805,6.029,CST-1368DR,7584,10623,15338,0.072,550
2019-10-17T01:14:23,42.805,6.029,CST-1368DR,7584,10621,15336,0.072,550
2019-10-17T01:17:25,42.805,6.029,CST-1368DR,7584,10624,15339,0.072,551
2019-10-17T01:20:26,42.805,6.029,CST-1368DR,7584,10624,15339,0.072,550
2019-10-17T01:23:28,42.805,6.029,CST-1368DR,7584,10622,15337,0.072,551
2019-10-17T01:26:30,42.805,6.029,CST-1368DR,7584,10620,15333,0.073,550
2019-10-17T01:29:31,42.805,6.029,CST-1368DR,7585,10624,15338,0.072,550
2019-10-17T01:32:33,42.805,6.029,CST-1368DR,7585,10624,15337,0.072,551
2019-10-17T01:35:35,42.805,6.029,CST-1368DR,7585,10625,15339,0.072,551
2019-10-17T01:38:36,42.805,6.029,CST-1368DR,7585,10623,15336,0.072,551
2019-10-17T01:41:38,42.805,6.029,CST-1368DR,7584,10623,15338,0.072,551
2019-10-17T01:44:39,42.805,6.029,CST-1368DR,7584,10621,15335,0.073,551
2019-10-17T01:47:41,42.805,6.029,CST-1368DR,7584,10621,15335,0.073,551
2019-10-17T01:50:43,42.805,6.029,CST-1368DR,7584,10623,15338,0.072,550
2019-10-17T01:53:44,42.805,6.029,CST-1368DR,7584,10620,15334,0.073,551
2019-10-17T01:56:46,42.805,6.029,CST-1368DR,7584,10622,15337,0.072,550
2019-10-17T01:59:48,42.805,6.029,CST-1368DR,7583,10620,15335,0.073,550
2019-10-17T02:02:49,42.805,6.029,CST-1368DR,7583,10624,15341,0.071,551
2019-10-17T02:05:51,42.805,6.029,CST-1368DR,7583,10622,15338,0.072,551
2019-10-17T02:08:53,42.805,6.029,CST-1368DR,7583,10621,15337,0.072,551
2019-10-17T02:11:54,42.805,6.029,CST-1368DR,7583,10619,15334,0.073,551
2019-10-17T02:14:56,42.805,6.029,CST-1368DR,7583,10589,15290,0.084,551
2019-10-17T02:17:58,42.805,6.029,CST-1368DR,7583,10621,15337,0.072,551
2019-10-17T02:20:59,42.805,6.029,CST-1368DR,7583,10622,15339,0.072,551
2019-10-17T02:24:01,42.805,6.029,CST-1368DR,7584,10621,15335,0.073,551
2019-10-17T02:27:03,42.805,6.029,CST-1368DR,7584,10622,15337,0.072,551
2019-10-17T02:30:04,42.805,6.029,CST-1368DR,7584,10622,15336,0.072,550
2019-10-17T02:33:06,42.805,6.029,CST-1368DR,7584,10622,15337,0.072,551
2019-10-17T02:36:08,42.805,6.029,CST-1368DR,7584,10624,15340,0.071,551
2019-10-17T02:39:10,42.805,6.029,CST-1368DR,7584,10620,15333,0.073,551
2019-10-17T02:42:12,42.805,6.029,CST-1368DR,7584,10624,15340,0.071,551
2019-10-17T02:45:13,42.805,6.029,CST-1368DR,7584,10622,15337,0.072,551
2019-10-17T02:48:15,42.805,6.029,CST-1368DR,7584,10622,15336,0.072,551
2019-10-17T02:51:17,42.805,6.029,CST-1368DR,7584,10624,15339,0.072,551
2019-10-17T02:54:18,42.805,6.029,CST-1368DR,7584,10625,15340,0.071,551
2019-10-17T02:57:20,42.805,6.029,CST-1368DR,7584,10623,15338,0.072,551
2019-10-17T03:00:22,42.805,6.029,CST-1368DR,7584,10618,15331,0.074,551
2019-10-17T03:03:23,42.805,6.029,CST-1368DR,7584,10624,15339,0.072,551
2019-10-17T03:06:25,42.805,6.029,CST-1368DR,7584,10620,15334,0.073,551
2019-10-17T03:09:27,42.805,6.029,CST-1368DR,7584,10622,15336,0.072,551
2019-10-17T03:12:28,42.805,6.029,CST-1368DR,7584,10624,15339,0.072,551
2019-10-17T03:15:30,42.805,6.029,CST-1368DR,7584,10625,15340,0.071,550
2019-10-17T03:18:32,42.805,6.029,CST-1368DR,7584,10624,15340,0.071,551
2019-10-17T03:21:33,42.805,6.029,CST-1368DR,7584,10623,15338,0.072,550
2019-10-17T03:24:35,42.805,6.029,CST-1368DR,7584,10614,15325,0.075,551
2019-10-17T03:27:36,42.805,6.029,CST-1368DR,7584,10623,15337,0.072,551
2019-10-17T03:30:38,42.805,6.029,CST-1368DR,7584,10621,15336,0.072,551
2019-10-17T03:33:40,42.805,6.029,CST-1368DR,7584,10623,15338,0.072,551
2019-10-17T03:36:41,42.805,6.029,CST-1368DR,7584,10624,15340,0.071,551
2019-10-17T03:39:43,42.805,6.029,CST-1368DR,7584,10624,15339,0.072,551
2019-10-17T03:42:45,42.805,6.029,CST-1368DR,7584,10624,15340,0.071,550
2019-10-17T03:45:46,42.805,6.029,CST-1368DR,7584,10624,15340,0.071,551
2019-10-17T03:48:48,42.805,6.029,CST-1368DR,7584,10624,15340,0.071,551
2019-10-17T03:51:50,42.805,6.029,CST-1368DR,7584,10623,15338,0.072,551
2019-10-17T03:54:51,42.805,6.029,CST-1368DR,7584,10623,15338,0.072,551
2019-10-17T03:57:53,42.805,6.029,CST-1368DR,7584,10624,15339,0.072,551
2019-10-17T04:00:55,42.805,6.029,CST-1368DR,7584,10624,15340,0.071,551
2019-10-17T04:03:56,42.805,6.029,CST-1368DR,7584,10624,15339,0.072,551
2019-10-17T04:06:58,42.805,6.029,CST-1368DR,7584,10620,15333,0.073,551
2019-10-17T04:09:59,42.805,6.029,CST-1368DR,7584,10623,15338,0.072,551
2019-10-17T04:13:01,42.805,6.029,CST-1368DR,7584,10623,15338,0.072,551
2019-10-17T04:16:03,42.805,6.029,CST-1368DR,7584,10623,15338,0.072,551
2019-10-17T04:19:04,42.805,6.029,CST-1368DR,7584,10623,15338,0.072,551
2019-10-17T04:22:06,42.805,6.029,CST-1368DR,7584,10624,15340,0.071,551
2019-10-17T04:25:08,42.805,6.029,CST-1368DR,7584,10623,15338,0.072,551
2019-10-17T04:28:09,42.805,6.029,CST-1368DR,7584,10623,15338,0.072,551
2019-10-17T04:31:11,42.805,6.029,CST-1368DR,7584,10624,15339,0.072,551
2019-10-17T04:34:13,42.805,6.029,CST-1368DR,7584,10622,15336,0.072,550
2019-10-17T04:37:14,42.805,6.029,CST-1368DR,7584,10620,15334,0.073,551
2019-10-17T04:40:16,42.805,6.029,CST-1368DR,7584,10622,15337,0.072,551
2019-10-17T04:43:18,42.805,6.029,CST-1368DR,7584,10622,15336,0.072,551
2019-10-17T04:46:19,42.805,6.029,CST-1368DR,7584,10622,15336,0.072,551
2019-10-17T04:49:21,42.805,6.029,CST-1368DR,7584,10623,15338,0.072,551
2019-10-17T04:52:22,42.805,6.029,CST-1368DR,7584,10623,15337,0.072,551
2019-10-17T04:55:24,42.805,6.029,CST-1368DR,7584,10619,15332,0.073,551
2019-10-17T04:58:26,42.805,6.029,CST-1368DR,7584,10622,15337,0.072,551
2019-10-17T05:01:27,42.805,6.029,CST-1368DR,7584,10622,15337,0.072,551
2019-10-17T05:04:29,42.805,6.029,CST-1368DR,7584,10622,15337,0.072,551
2019-10-17T05:07:31,42.805,6.029,CST-1368DR,7584,10623,15338,0.072,551
2019-10-17T05:10:32,42.805,6.029,CST-1368DR,7584,10624,15340,0.071,551
2019-10-17T05:13:34,42.805,6.029,CST-1368DR,7584,10622,15337,0.072,551
2019-10-17T05:16:36,42.805,6.029,CST-1368DR,7584,10620,15334,0.073,551
2019-10-17T05:19:37,42.805,6.029,CST-1368DR,7584,10622,15337,0.072,551
2019-10-17T05:22:39,42.805,6.029,CST-1368DR,7583,10623,15340,0.071,551
2019-10-17T05:25:40,42.805,6.029,CST-1368DR,7583,10623,15340,0.071,551
2019-10-17T05:28:42,42.805,6.029,CST-1368DR,7584,10625,15341,0.071,551
2019-10-17T05:31:44,42.805,6.029,CST-1368DR,7583,10624,15341,0.071,551
2019-10-17T05:34:45,42.805,6.029,CST-1368DR,7583,10623,15340,0.071,551
2019-10-17T05:37:47,42.805,6.029,CST-1368DR,7583,10623,15340,0.071,551
2019-10-17T05:40:49,42.805,6.029,CST-1368DR,7583,10624,15342,0.071,551
2019-10-17T05:43:50,42.805,6.029,CST-1368DR,7583,10624,15342,0.071,551
2019-10-17T05:46:52,42.805,6.029,CST-1368DR,7583,10624,15342,0.071,551
2019-10-17T05:49:54,42.805,6.029,CST-1368DR,7583,10624,15342,0.071,551
2019-10-17T05:52:55,42.805,6.029,CST-1368DR,7583,10624,15342,0.071,551
2019-10-17T05:55:57,42.805,6.029,CST-1368DR,7583,10624,15342,0.071,551
2019-10-17T05:58:59,42.805,6.029,CST-1368DR,7583,10623,15339,0.072,551
2019-10-17T06:02:01,42.805,6.029,CST-1368DR,7583,10622,15339,0.072,551
2019-10-17T06:05:02,42.805,6.029,CST-1368DR,7583,10624,15341,0.071,551
2019-10-17T06:08:04,42.805,6.029,CST-1368DR,7583,10624,15341,0.071,551
2019-10-17T06:11:06,42.805,6.029,CST-1368DR,7582,10454,15097,0.135,551
2019-10-17T06:14:07,42.805,6.029,CST-1368DR,7583,10623,15340,0.071,551
2019-10-17T06:17:09,42.805,6.029,CST-1368DR,7583,10624,15341,0.071,551
2019-10-17T06:20:11,42.805,6.029,CST-1368DR,7583,10622,15339,0.072,551
2019-10-17T06:23:12,42.805,6.029,CST-1368DR,7583,10623,15340,0.071,550
2019-10-17T06:26:14,42.805,6.029,CST-1368DR,7583,10623,15340,0.071,550
2019-10-17T06:29:16,42.805,6.029,CST-1368DR,7583,10622,15338,0.072,551
2019-10-17T06:32:17,42.805,6.029,CST-1368DR,7583,10623,15340,0.071,551
2019-10-17T06:35:19,42.805,6.029,CST-1368DR,7583,10623,15340,0.071,551
2019-10-17T06:38:21,42.805,6.029,CST-1368DR,7583,10623,15340,0.071,551
2019-10-17T06:41:22,42.805,6.029,CST-1368DR,7583,10620,15336,0.072,551
2019-10-17T06:44:24,42.805,6.029,CST-1368DR,7583,10622,15339,0.072,551
2019-10-17T06:47:26,42.805,6.029,CST-1368DR,7583,10623,15340,0.071,551
2019-10-17T06:50:27,42.805,6.029,CST-1368DR,7583,10623,15339,0.072,551
2019-10-17T06:53:29,42.805,6.029,CST-1368DR,7583,10623,15340,0.071,551
2019-10-17T06:56:31,42.805,6.029,CST-1368DR,7583,10623,15339,0.072,551
2019-10-17T06:59:32,42.805,6.029,CST-1368DR,7583,10623,15340,0.071,551
2019-10-17T07:02:34,42.805,6.029,CST-1368DR,7583,10623,15339,0.072,551
2019-10-17T07:05:36,42.805,6.029,CST-1368DR,7583,10622,15338,0.072,551
2019-10-17T07:08:37,42.805,6.029,CST-1368DR,7583,10623,15340,0.071,551
2019-10-17T07:11:39,42.805,6.029,CST-1368DR,7583,10622,15339,0.072,551
2019-10-17T07:14:41,42.805,6.029,CST-1368DR,7583,10623,15339,0.072,551
2019-10-17T07:17:43,42.805,6.029,CST-1368DR,7583,10622,15339,0.072,551
2019-10-17T07:20:44,42.805,6.029,CST-1368DR,7583,10622,15338,0.072,551
2019-10-17T07:23:46,42.805,6.029,CST-1368DR,7583,10620,15336,0.072,551
2019-10-17T07:26:48,42.805,6.029,CST-1368DR,7583,10623,15339,0.072,551
2019-10-17T07:29:49,42.805,6.029,CST-1368DR,7583,10622,15339,0.072,551
2019-10-17T07:32:51,42.805,6.029,CST-1368DR,7583,10620,15335,0.073,551
2019-10-17T07:35:53,42.805,6.029,CST-1368DR,7583,10622,15338,0.072,550
2019-10-17T07:38:54,42.805,6.029,CST-1368DR,7583,10621,15337,0.072,551
2019-10-17T07:41:56,42.805,6.029,CST-1368DR,7583,10622,15339,0.072,551
2019-10-17T07:44:57,42.805,6.029,CST-1368DR,7583,10622,15339,0.072,551
2019-10-17T07:47:59,42.805,6.029,CST-1368DR,7583,10622,15339,0.072,551
2019-10-17T07:51:01,42.805,6.029,CST-1368DR,7583,10621,15337,0.072,551
2019-10-17T07:54:02,42.805,6.029,CST-1368DR,7583,10620,15336,0.072,551
2019-10-17T07:57:04,42.805,6.029,CST-1368DR,7583,10622,15338,0.072,551
2019-10-17T08:00:06,42.805,6.029,CST-1368DR,7583,10621,15337,0.072,551
2019-10-17T08:03:07,42.805,6.029,CST-1368DR,7583,10618,15333,0.073,551
2019-10-17T08:06:09,42.805,6.029,CST-1368DR,7583,10618,15333,0.073,551
2019-10-17T08:09:11,42.805,6.029,CST-1368DR,7583,10617,15331,0.074,551
2019-10-17T08:12:12,42.805,6.029,CST-1368DR,7583,10620,15336,0.072,549
2019-10-17T08:15:14,42.805,6.029,CST-1368DR,7583,10620,15336,0.072,551
2019-10-17T08:18:16,42.805,6.029,CST-1368DR,7583,10622,15338,0.072,551
2019-10-17T08:21:17,42.805,6.029,CST-1368DR,7583,10622,15338,0.072,551
2019-10-17T08:24:19,42.805,6.029,CST-1368DR,7583,10622,15338,0.072,550
2019-10-17T08:27:21,42.805,6.029,CST-1368DR,7583,10622,15339,0.072,551
2019-10-17T08:30:22,42.805,6.029,CST-1368DR,7583,10622,15339,0.072,551
2019-10-17T08:33:24,42.805,6.029,CST-1368DR,7583,10622,15339,0.072,551
2019-10-17T08:36:26,42.805,6.029,CST-1368DR,7583,10622,15338,0.072,551
2019-10-17T08:39:27,42.805,6.029,CST-1368DR,7583,10621,15337,0.072,550
2019-10-17T08:42:29,42.805,6.029,CST-1368DR,7583,10621,15337,0.072,551
2019-10-17T08:45:31,42.805,6.029,CST-1368DR,7583,10622,15338,0.072,551
2019-10-17T08:48:32,42.805,6.029,CST-1368DR,7583,10622,15338,0.072,551
2019-10-17T08:51:34,42.805,6.029,CST-1368DR,7583,10622,15338,0.072,551
2019-10-17T08:54:36,42.805,6.029,CST-1368DR,7583,10622,15339,0.072,550
2019-10-17T08:57:37,42.805,6.029,CST-1368DR,7583,10622,15338,0.072,551
2019-10-17T09:00:39,42.805,6.029,CST-1368DR,7583,10622,15339,0.072,551
2019-10-17T09:03:40,42.805,6.029,CST-1368DR,7583,10621,15337,0.072,551
2019-10-17T09:06:42,42.805,6.029,CST-1368DR,7582,10623,15341,0.071,551
2019-10-17T09:09:44,42.805,6.029,CST-1368DR,7583,10623,15339,0.072,550
2019-10-17T09:12:45,42.805,6.029,CST-1368DR,7582,10623,15341,0.071,551
2019-10-17T09:15:47,42.805,6.029,CST-1368DR,7582,10621,15339,0.072,551
2019-10-17T09:18:49,42.805,6.029,CST-1368DR,7582,10621,15339,0.072,551
2019-10-17T09:21:50,42.805,6.029,CST-1368DR,7582,10620,15337,0.072,550
2019-10-17T09:24:52,42.805,6.029,CST-1368DR,7582,10621,15339,0.072,551
2019-10-17T09:27:54,42.805,6.029,CST-1368DR,7582,10621,15339,0.072,550
2019-10-17T09:30:55,42.805,6.029,CST-1368DR,7582,10621,15339,0.072,551
2019-10-17T09:33:57,42.805,6.029,CST-1368DR,7582,10621,15339,0.072,551
2019-10-17T09:36:59,42.805,6.029,CST-1368DR,7582,10621,15339,0.072,551
2019-10-17T09:40:00,42.805,6.029,CST-1368DR,7582,10622,15341,0.071,551
2019-10-17T09:43:02,42.805,6.029,CST-1368DR,7582,10620,15338,0.072,551
2019-10-17T09:46:04,42.805,6.029,CST-1368DR,7582,10623,15341,0.071,551
2019-10-17T09:49:05,42.805,6.029,CST-1368DR,7582,10622,15340,0.071,551
2019-10-17T09:52:07,42.805,6.029,CST-1368DR,7582,10621,15339,0.072,551
2019-10-17T09:55:09,42.805,6.029,CST-1368DR,7582,10621,15339,0.072,551
2019-10-17T09:58:10,42.805,6.029,CST-1368DR,7582,10621,15339,0.072,551
2019-10-17T10:01:12,42.805,6.029,CST-1368DR,7582,10620,15338,0.072,551
2019-10-17T10:04:13,42.805,6.029,CST-1368DR,7582,10621,15339,0.072,551
2019-10-17T10:07:15,42.805,6.029,CST-1368DR,7582,10622,15340,0.071,551
2019-10-17T10:10:17,42.805,6.029,CST-1368DR,7582,10622,15341,0.071,551
2019-10-17T10:13:18,42.805,6.029,CST-1368DR,7582,10621,15339,0.072,551
2019-10-17T10:16:20,42.805,6.029,CST-1368DR,7582,10621,15339,0.072,551
2019-10-17T10:19:22,42.805,6.029,CST-1368DR,7582,10621,15339,0.072,551
2019-10-17T10:22:23,42.805,6.029,CST-1368DR,7582,10620,15337,0.072,551
2019-10-17T10:25:25,42.805,6.029,CST-1368DR,7582,10621,15339,0.072,551
2019-10-17T10:28:27,42.805,6.029,CST-1368DR,7578,10395,15019,0.156,551
2019-10-17T10:31:28,42.805,6.029,CST-1368DR,7582,10621,15339,0.072,551
2019-10-17T10:34:30,42.805,6.029,CST-1368DR,7582,10616,15332,0.073,551
2019-10-17T10:37:31,42.805,6.029,CST-1368DR,7582,10620,15337,0.072,551
2019-10-17T10:40:33,42.805,6.029,CST-1368DR,7582,10620,15338,0.072,551
2019-10-17T10:43:35,42.805,6.029,CST-1368DR,7582,10621,15339,0.072,551
2019-10-17T10:46:36,42.805,6.029,CST-1368DR,7582,10620,15338,0.072,550
2019-10-17T10:49:38,42.805,6.029,CST-1368DR,7582,10622,15340,0.071,551
2019-10-17T10:52:40,42.805,6.029,CST-1368DR,7582,10621,15339,0.072,551
2019-10-17T10:55:41,42.805,6.029,CST-1368DR,7582,10622,15340,0.071,550
2019-10-17T10:58:43,42.805,6.029,CST-1368DR,7582,10622,15340,0.071,551
2019-10-17T11:01:45,42.805,6.029,CST-1368DR,7582,10621,15339,0.072,551
2019-10-17T11:04:46,42.805,6.029,CST-1368DR,7582,10621,15339,0.072,551
2019-10-17T11:07:48,42.805,6.029,CST-1368DR,7582,10621,15339,0.072,551
2019-10-17T11:10:49,42.805,6.029,CST-1368DR,7582,10620,15338,0.072,551
2019-10-17T11:13:51,42.805,6.029,CST-1368DR,7582,10622,15340,0.071,551
2019-10-17T11:16:53,42.805,6.029,CST-1368DR,7582,10620,15338,0.072,551
2019-10-17T11:19:54,42.805,6.029,CST-1368DR,7582,10619,15336,0.072,550
2019-10-17T11:22:56,42.805,6.029,CST-1368DR,7582,10620,15337,0.072,551
2019-10-17T11:25:58,42.805,6.029,CST-1368DR,7582,10621,15339,0.072,551
2019-10-17T11:28:59,42.805,6.029,CST-1368DR,7582,10621,15339,0.072,551
2019-10-17T11:32:01,42.805,6.029,CST-1368DR,7582,10620,15338,0.072,551
2019-10-17T11:35:03,42.805,6.029,CST-1368DR,7582,10621,15339,0.072,550
2019-10-17T11:38:04,42.805,6.029,CST-1368DR,7582,10621,15339,0.072,551
2019-10-17T11:41:06,42.805,6.029,CST-1368DR,7582,10620,15338,0.072,551
2019-10-17T11:44:08,42.805,6.029,CST-1368DR,7582,10620,15338,0.072,551
2019-10-17T11:47:09,42.805,6.029,CST-1368DR,7582,10619,15336,0.072,551
2019-10-17T11:50:11,42.805,6.029,CST-1368DR,7582,10620,15338,0.072,550
2019-10-17T11:53:13,42.805,6.029,CST-1368DR,7582,10621,15339,0.072,551
2019-10-17T11:56:14,42.805,6.029,CST-1368DR,7581,10621,15341,0.071,551
2019-10-17T11:59:16,42.805,6.029,CST-1368DR,7582,10620,15337,0.072,551
2019-10-17T12:02:18,42.805,6.029,CST-1368DR,7581,10620,15339,0.072,550
2019-10-17T12:05:19,42.805,6.029,CST-1368DR,7582,10620,15337,0.072,551
2019-10-17T12:08:21,42.805,6.029,CST-1368DR,7582,10619,15336,0.072,551
2019-10-17T12:11:22,42.805,6.029,CST-1368DR,7581,10620,15340,0.071,551
2019-10-17T12:14:24,42.805,6.029,CST-1368DR,7582,10621,15339,0.072,551
2019-10-17T12:17:26,42.805,6.029,CST-1368DR,7581,10620,15340,0.071,550
2019-10-17T12:20:27,42.805,6.029,CST-1368DR,7581,10620,15339,0.072,551
2019-10-17T12:23:29,42.805,6.029,CST-1368DR,7581,10620,15340,0.071,551
2019-10-17T12:26:31,42.805,6.029,CST-1368DR,7581,10619,15338,0.072,551
2019-10-17T12:29:32,42.805,6.029,CST-1368DR,7581,10620,15339,0.072,551
2019-10-17T12:32:34,42.805,6.029,CST-1368DR,7581,10620,15339,0.072,551
2019-10-17T12:35:36,42.805,6.029,CST-1368DR,7581,10620,15339,0.072,551
2019-10-17T12:38:37,42.805,6.029,CST-1368DR,7581,10621,15341,0.071,550
2019-10-17T12:41:39,42.805,6.029,CST-1368DR,7581,10620,15340,0.071,551
2019-10-17T12:44:41,42.805,6.029,CST-1368DR,7581,10620,15339,0.072,551
2019-10-17T12:47:42,42.805,6.029,CST-1368DR,7581,10620,15339,0.072,551
2019-10-17T12:50:44,42.805,6.029,CST-1368DR,7581,10620,15340,0.071,551
2019-10-17T12:53:45,42.805,6.029,CST-1368DR,7581,10615,15333,0.073,551
2019-10-17T12:56:47,42.805,6.029,CST-1368DR,7581,10621,15341,0.071,550
2019-10-17T12:59:49,42.805,6.029,CST-1368DR,7581,10621,15341,0.071,551
2019-10-17T13:02:50,42.805,6.029,CST-1368DR,7581,10620,15340,0.071,551
2019-10-17T13:05:52,42.805,6.029,CST-1368DR,7581,10620,15339,0.072,551
2019-10-17T13:08:54,42.805,6.029,CST-1368DR,7581,10620,15339,0.072,551
2019-10-17T13:11:55,42.805,6.029,CST-1368DR,7581,10620,15340,0.071,551
2019-10-17T13:14:57,42.805,6.029,CST-1368DR,7581,10620,15339,0.072,551
2019-10-17T13:17:59,42.805,6.029,CST-1368DR,7581,10619,15338,0.072,551
2019-10-17T13:21:00,42.805,6.029,CST-1368DR,7581,10619,15338,0.072,551
2019-10-17T13:24:02,42.805,6.029,CST-1368DR,7581,10616,15334,0.073,551
2019-10-17T13:27:03,42.805,6.029,CST-1368DR,7581,10620,15339,0.072,550
2019-10-17T13:30:05,42.805,6.029,CST-1368DR,7581,10619,15338,0.072,551
2019-10-17T13:33:07,42.805,6.029,CST-1368DR,7581,10619,15338,0.072,551
2019-10-17T13:36:08,42.805,6.029,CST-1368DR,7581,10619,15338,0.072,551
2019-10-17T13:39:10,42.805,6.029,CST-1368DR,7581,10618,15337,0.072,551
2019-10-17T13:42:12,42.805,6.029,CST-1368DR,7581,10620,15339,0.072,551
2019-10-17T13:45:13,42.805,6.029,CST-1368DR,7581,10619,15338,0.072,551
2019-10-17T13:48:15,42.805,6.029,CST-1368DR,7581,10620,15339,0.072,551
2019-10-17T13:51:17,42.805,6.029,CST-1368DR,7581,10619,15338,0.072,551
2019-10-17T13:54:18,42.805,6.029,CST-1368DR,7581,10619,15338,0.072,551
2019-10-17T13:57:20,42.805,6.029,CST-1368DR,7581,10618,15336,0.072,551
2019-10-17T14:00:21,42.805,6.029,CST-1368DR,7581,10619,15338,0.072,551
2019-10-17T14:03:23,42.805,6.029,CST-1368DR,7581,10619,15338,0.072,551
2019-10-17T14:06:25,42.805,6.029,CST-1368DR,7581,10620,15339,0.072,551
2019-10-17T14:09:26,42.805,6.029,CST-1368DR,7581,10620,15339,0.072,551
2019-10-17T14:12:28,42.805,6.029,CST-1368DR,7581,10619,15338,0.072,551
2019-10-17T14:15:30,42.805,6.029,CST-1368DR,7581,10618,15337,0.072,551
2019-10-17T14:18:31,42.805,6.029,CST-1368DR,7581,10619,15338,0.072,551
2019-10-17T14:21:33,42.805,6.029,CST-1368DR,7581,10619,15337,0.072,551
2019-10-17T14:24:34,42.805,6.029,CST-1368DR,7581,10619,15338,0.072,551
2019-10-17T14:27:36,42.805,6.029,CST-1368DR,7581,10618,15337,0.072,550
2019-10-17T14:30:38,42.805,6.029,CST-1368DR,7581,10620,15339,0.072,550
2019-10-17T14:33:39,42.805,6.029,CST-1368DR,7581,10619,15337,0.072,551
2019-10-17T14:36:41,42.805,6.029,CST-1368DR,7580,10613,15332,0.073,551
2019-10-17T14:39:43,42.805,6.029,CST-1368DR,7580,10619,15340,0.071,550
2019-10-17T14:42:44,42.805,6.029,CST-1368DR,7580,10616,15335,0.073,551
2019-10-17T14:45:46,42.805,6.029,CST-1368DR,7580,10610,15327,0.075,551
2019-10-17T14:48:48,42.805,6.029,CST-1368DR,7580,10618,15338,0.072,551
2019-10-17T14:51:49,42.805,6.029,CST-1368DR,7580,10617,15337,0.072,551
2019-10-17T14:54:51,42.805,6.029,CST-1368DR,7580,10619,15339,0.072,551
2019-10-17T14:57:53,42.805,6.029,CST-1368DR,7580,10617,15336,0.072,551
2019-10-17T15:00:54,42.805,6.029,CST-1368DR,7580,10617,15337,0.072,551
2019-10-17T15:03:56,42.805,6.029,CST-1368DR,7580,10610,15327,0.075,551
2019-10-17T15:06:57,42.805,6.029,CST-1368DR,7580,10618,15338,0.072,551
2019-10-17T15:09:59,42.805,6.029,CST-1368DR,7580,10616,15335,0.073,550
2019-10-17T15:13:01,42.805,6.029,CST-1368DR,7580,10619,15340,0.071,551
2019-10-17T15:16:02,42.805,6.029,CST-1368DR,7580,10618,15338,0.072,551
2019-10-17T15:19:04,42.805,6.029,CST-1368DR,7580,10616,15336,0.072,551
2019-10-17T15:22:06,42.805,6.029,CST-1368DR,7580,10618,15339,0.072,551
2019-10-17T15:25:07,42.805,6.029,CST-1368DR,7580,10619,15339,0.072,551
2019-10-17T15:28:09,42.805,6.029,CST-1368DR,7579,10567,15267,0.090,551
2019-10-17T15:31:10,42.805,6.029,CST-1368DR,7580,10616,15335,0.073,551
2019-10-17T15:34:12,42.805,6.029,CST-1368DR,7580,10619,15340,0.071,550
2019-10-17T15:37:14,42.805,6.029,CST-1368DR,7580,10616,15336,0.072,551
2019-10-17T15:40:15,42.805,6.029,CST-1368DR,7580,10618,15338,0.072,551
2019-10-17T15:43:17,42.805,6.029,CST-1368DR,7580,10618,15338,0.072,551
2019-10-17T15:46:19,42.805,6.029,CST-1368DR,7580,10618,15338,0.072,551
2019-10-17T15:49:20,42.805,6.029,CST-1368DR,7580,10617,15337,0.072,551
2019-10-17T15:52:22,42.805,6.029,CST-1368DR,7579,10618,15340,0.071,551
2019-10-17T15:55:24,42.805,6.029,CST-1368DR,7579,10618,15340,0.071,551
2019-10-17T15:58:25,42.805,6.029,CST-1368DR,7579,10616,15337,0.072,551
2019-10-17T16:01:27,42.805,6.029,CST-1368DR,7579,10615,15336,0.072,551
2019-10-17T16:04:28,42.805,6.029,CST-1368DR,7579,10619,15341,0.071,551
2019-10-17T16:07:30,42.805,6.029,CST-1368DR,7579,10618,15341,0.071,550
2019-10-17T16:10:32,42.805,6.029,CST-1368DR,7579,10616,15337,0.072,551
2019-10-17T16:13:33,42.805,6.029,CST-1368DR,7579,10617,15339,0.072,551
2019-10-17T16:16:35,42.805,6.029,CST-1368DR,7579,10618,15341,0.071,551
2019-10-17T16:19:36,42.805,6.029,CST-1368DR,7579,10618,15341,0.071,551
2019-10-17T16:22:38,42.805,6.029,CST-1368DR,7579,10617,15338,0.072,551
2019-10-17T16:25:40,42.805,6.029,CST-1368DR,7579,10618,15340,0.071,551
2019-10-17T16:28:41,42.805,6.029,CST-1368DR,7579,10614,15334,0.073,550
2019-10-17T16:31:43,42.805,6.029,CST-1368DR,7579,10616,15338,0.072,551
2019-10-17T16:34:45,42.805,6.029,CST-1368DR,7579,10617,15339,0.072,551
2019-10-17T16:37:46,42.805,6.029,CST-1368DR,7579,10617,15338,0.072,550